NSZ2025 EYPA-ENBR

Flight info

Callsign NSZ2025
Flight time 1h 29m
Altitude 38000
Route TIRIN DCT PESUR
Aircraft B738/M-SADE3GHIJ1LRWXY/LB1

Departure

Time 2026-04-21 16:25
Airport Palanga International Airport (EYPA)

Arrival

Time 2026-04-21 17:54
Airport Bergen Airport, Flesland (ENBR)
Time Latitude Longitude Altitude Speed Heading
2026-04-21 16:04 55.97009 21.09632 37 ft 0 kts 292°
2026-04-21 16:20 55.97009 21.09630 37 ft 1 kts 292°
2026-04-21 16:20 55.97018 21.09591 37 ft 5 kts 294°
2026-04-21 16:20 55.97058 21.09553 35 ft 8 kts 335°
2026-04-21 16:21 55.97095 21.09463 37 ft 11 kts 285°
2026-04-21 16:21 55.97099 21.09318 35 ft 13 kts 236°
2026-04-21 16:21 55.97005 21.09259 37 ft 17 kts 192°
2026-04-21 16:21 55.96888 21.09211 37 ft 17 kts 193°
2026-04-21 16:22 55.96775 21.09161 37 ft 16 kts 194°
2026-04-21 16:22 55.96666 21.09117 37 ft 16 kts 192°
2026-04-21 16:22 55.96558 21.09073 37 ft 16 kts 193°
2026-04-21 16:22 55.96454 21.09033 36 ft 15 kts 187°
2026-04-21 16:23 55.96352 21.09060 37 ft 15 kts 180°
2026-04-21 16:23 55.96328 21.08998 37 ft 6 kts 313°
2026-04-21 16:23 55.96356 21.08996 37 ft 0 kts 14°
2026-04-21 16:24 55.96551 21.09076 37 ft 67 kts 12°
2026-04-21 16:24 55.97249 21.09357 38 ft 135 kts 12°
2026-04-21 16:25 55.98279 21.09796 480 ft 154 kts 13°
2026-04-21 16:25 55.99250 21.10225 1598 ft 139 kts 13°
2026-04-21 16:25 56.00201 21.10712 2282 ft 152 kts 15°
2026-04-21 16:25 56.01316 21.11271 2788 ft 174 kts 10°
2026-04-21 16:26 56.02515 21.10986 3560 ft 183 kts 334°
2026-04-21 16:26 56.03397 21.09276 4223 ft 197 kts 297°
2026-04-21 16:26 56.03771 21.06793 4752 ft 220 kts 286°
2026-04-21 16:26 56.04044 21.03926 5019 ft 250 kts 284°
2026-04-21 16:27 56.04330 21.00728 5620 ft 264 kts 282°
2026-04-21 16:27 56.04625 20.97439 6470 ft 269 kts 282°
2026-04-21 16:27 56.04919 20.94148 7284 ft 273 kts 283°
2026-04-21 16:27 56.05229 20.90752 8078 ft 279 kts 284°
2026-04-21 16:28 56.05551 20.87277 8889 ft 283 kts 284°
2026-04-21 16:28 56.05877 20.83766 9718 ft 288 kts 284°
2026-04-21 16:28 56.06206 20.80240 10456 ft 294 kts 284°
2026-04-21 16:28 56.06580 20.76509 10725 ft 316 kts 289°
2026-04-21 16:29 56.07422 20.72809 11126 ft 324 kts 306°
2026-04-21 16:29 56.08685 20.69434 11829 ft 327 kts 310°
2026-04-21 16:29 56.10011 20.66093 12644 ft 331 kts 310°
2026-04-21 16:29 56.11344 20.62763 13435 ft 335 kts 311°
2026-04-21 16:30 56.12707 20.59339 14232 ft 340 kts 310°
2026-04-21 16:30 56.14081 20.55849 14986 ft 344 kts 310°
2026-04-21 16:30 56.15469 20.52309 15772 ft 348 kts 310°
2026-04-21 16:30 56.16870 20.48724 16560 ft 352 kts 310°
2026-04-21 16:31 56.18279 20.45104 17315 ft 356 kts 310°
2026-04-21 16:31 56.19691 20.41468 18062 ft 361 kts 310°
2026-04-21 16:31 56.21140 20.37730 18734 ft 366 kts 310°
2026-04-21 16:31 56.22603 20.33945 19363 ft 371 kts 310°
2026-04-21 16:32 56.24083 20.30105 20035 ft 374 kts 310°
2026-04-21 16:32 56.25575 20.26227 20690 ft 378 kts 310°
2026-04-21 16:32 56.27059 20.22366 21357 ft 381 kts 310°
2026-04-21 16:32 56.28571 20.18421 22001 ft 384 kts 310°
2026-04-21 16:33 56.30103 20.14422 22595 ft 389 kts 309°
2026-04-21 16:33 56.31651 20.10376 23200 ft 393 kts 309°
2026-04-21 16:33 56.33208 20.06296 23794 ft 397 kts 309°
2026-04-21 16:33 56.34767 20.02206 24303 ft 400 kts 309°
2026-04-21 16:34 56.36348 19.98048 24837 ft 403 kts 309°
2026-04-21 16:34 56.37936 19.93863 25360 ft 405 kts 309°
2026-04-21 16:34 56.39537 19.89638 25856 ft 407 kts 310°
2026-04-21 16:34 56.41145 19.85390 26354 ft 410 kts 310°
2026-04-21 16:35 56.42739 19.81171 26822 ft 413 kts 310°
2026-04-21 16:35 56.44364 19.76862 27295 ft 415 kts 310°
2026-04-21 16:35 56.45999 19.72519 27771 ft 418 kts 310°
2026-04-21 16:35 56.47641 19.68149 28223 ft 420 kts 310°
2026-04-21 16:36 56.49290 19.63756 28669 ft 423 kts 310°
2026-04-21 16:36 56.50929 19.59378 29100 ft 425 kts 310°
2026-04-21 16:36 56.52596 19.54918 29529 ft 428 kts 310°
2026-04-21 16:36 56.54267 19.50437 29938 ft 430 kts 310°
2026-04-21 16:37 56.55949 19.45921 30313 ft 433 kts 310°
2026-04-21 16:37 56.57643 19.41365 30613 ft 436 kts 310°
2026-04-21 16:37 56.59341 19.36789 30915 ft 438 kts 310°
2026-04-21 16:37 56.61030 19.32227 31223 ft 441 kts 310°
2026-04-21 16:38 56.62743 19.27591 31522 ft 443 kts 310°
2026-04-21 16:38 56.64466 19.22917 31856 ft 444 kts 309°
2026-04-21 16:38 56.66186 19.18243 32288 ft 443 kts 309°
2026-04-21 16:38 56.67897 19.13579 32719 ft 442 kts 309°
2026-04-21 16:39 56.69584 19.08974 33111 ft 441 kts 309°
2026-04-21 16:39 56.71290 19.04313 33466 ft 442 kts 309°
2026-04-21 16:39 56.72994 18.99649 33847 ft 441 kts 309°
2026-04-21 16:39 56.74693 18.94989 34215 ft 441 kts 310°
2026-04-21 16:40 56.76371 18.90380 34517 ft 440 kts 309°
2026-04-21 16:40 56.78056 18.85738 34876 ft 439 kts 309°
2026-04-21 16:40 56.79744 18.81083 35164 ft 439 kts 309°
2026-04-21 16:40 56.81432 18.76420 35398 ft 440 kts 309°
2026-04-21 16:41 56.82553 18.73319 35567 ft 441 kts 309°
2026-04-21 16:41 56.84815 18.67046 35958 ft 441 kts 308°
2026-04-21 16:41 56.86498 18.62368 36234 ft 441 kts 308°
2026-04-21 16:41 56.88159 18.57742 36484 ft 441 kts 308°
2026-04-21 16:42 56.89844 18.53039 36742 ft 442 kts 308°
2026-04-21 16:42 56.91527 18.48335 36995 ft 442 kts 308°
2026-04-21 16:42 56.93206 18.43629 37268 ft 441 kts 308°
2026-04-21 16:42 56.94890 18.38903 37513 ft 442 kts 307°
2026-04-21 16:43 56.96567 18.34188 37784 ft 442 kts 307°
2026-04-21 16:43 56.98244 18.29461 38047 ft 441 kts 307°
2026-04-21 16:43 56.99919 18.24731 38289 ft 441 kts 307°
2026-04-21 16:44 57.03271 18.15244 38284 ft 446 kts 307°
2026-04-21 16:44 57.06632 18.05683 38271 ft 442 kts 307°
2026-04-21 16:45 57.09949 17.96210 38256 ft 439 kts 307°
2026-04-21 16:45 57.13215 17.86851 38275 ft 437 kts 307°
2026-04-21 16:46 57.16491 17.77430 38275 ft 436 kts 306°
2026-04-21 16:46 57.19760 17.67990 38279 ft 436 kts 306°
2026-04-21 16:47 57.23026 17.58524 38291 ft 437 kts 306°
2026-04-21 16:47 57.26271 17.49080 38284 ft 439 kts 306°
2026-04-21 16:48 57.29551 17.39493 38282 ft 441 kts 306°
2026-04-21 16:48 57.32839 17.29847 38285 ft 443 kts 306°
2026-04-21 16:49 57.35570 17.21802 38280 ft 444 kts 306°
2026-04-21 16:49 57.39391 17.10503 38283 ft 445 kts 306°
2026-04-21 16:50 57.42123 17.02389 38280 ft 445 kts 306°
2026-04-21 16:50 57.45401 16.92617 38273 ft 445 kts 306°
2026-04-21 16:51 57.48670 16.82835 38273 ft 444 kts 305°
2026-04-21 16:51 57.51897 16.73137 38283 ft 443 kts 305°
2026-04-21 16:52 57.55136 16.63364 38281 ft 442 kts 305°
2026-04-21 16:52 57.58362 16.53591 38282 ft 441 kts 305°
2026-04-21 16:53 57.61549 16.43896 38274 ft 440 kts 305°
2026-04-21 16:53 57.64723 16.34200 38270 ft 439 kts 305°
2026-04-21 16:54 57.67904 16.24446 38282 ft 439 kts 305°
2026-04-21 16:54 57.71073 16.14686 38278 ft 439 kts 305°
2026-04-21 16:55 57.74238 16.04902 38280 ft 439 kts 304°
2026-04-21 16:55 57.77378 15.95151 38263 ft 439 kts 304°
2026-04-21 16:56 57.80531 15.85321 38276 ft 439 kts 304°
2026-04-21 16:56 57.83659 15.75527 38280 ft 440 kts 304°
2026-04-21 16:57 57.86808 15.65626 38283 ft 441 kts 304°
2026-04-21 16:57 57.89961 15.55671 38282 ft 442 kts 304°
2026-04-21 16:58 57.93085 15.45766 38285 ft 442 kts 304°
2026-04-21 16:58 57.96223 15.35773 38285 ft 442 kts 304°
2026-04-21 16:59 57.99330 15.25836 38294 ft 442 kts 303°
2026-04-21 16:59 58.02459 15.15789 38293 ft 443 kts 303°
2026-04-21 17:00 58.05554 15.05807 38299 ft 443 kts 303°
2026-04-21 17:00 58.08160 14.97371 38299 ft 443 kts 303°
2026-04-21 17:01 58.11773 14.85623 38298 ft 443 kts 303°
2026-04-21 17:01 58.14847 14.75578 38307 ft 443 kts 303°
2026-04-21 17:02 58.17939 14.65435 38308 ft 444 kts 303°
2026-04-21 17:02 58.21020 14.55280 38298 ft 443 kts 303°
2026-04-21 17:03 58.24070 14.45186 38313 ft 443 kts 303°
2026-04-21 17:03 58.27129 14.35015 38296 ft 443 kts 302°
2026-04-21 17:04 58.30179 14.24834 38315 ft 442 kts 302°
2026-04-21 17:04 58.33200 14.14703 38312 ft 443 kts 302°
2026-04-21 17:05 58.36230 14.04500 38324 ft 443 kts 302°
2026-04-21 17:05 58.39263 13.94239 38313 ft 443 kts 302°
2026-04-21 17:06 58.42266 13.84035 38322 ft 443 kts 302°
2026-04-21 17:06 58.45286 13.73729 38314 ft 443 kts 302°
2026-04-21 17:07 58.48292 13.63424 38325 ft 444 kts 301°
2026-04-21 17:07 58.51273 13.53160 38326 ft 445 kts 301°
2026-04-21 17:08 58.54273 13.42784 38328 ft 445 kts 301°
2026-04-21 17:08 58.57270 13.32370 38330 ft 446 kts 301°
2026-04-21 17:09 58.61732 13.16779 38326 ft 446 kts 301°
2026-04-21 17:09 58.64719 13.06283 38326 ft 446 kts 301°
2026-04-21 17:10 58.67686 12.95806 38322 ft 446 kts 301°
2026-04-21 17:10 58.70632 12.85360 38328 ft 446 kts 301°
2026-04-21 17:11 58.73577 12.74867 38330 ft 446 kts 300°
2026-04-21 17:11 58.76526 12.64314 38334 ft 446 kts 300°
2026-04-21 17:12 58.79462 12.53757 38326 ft 445 kts 300°
2026-04-21 17:12 58.82360 12.43286 38328 ft 444 kts 300°
2026-04-21 17:13 58.85261 12.32758 38331 ft 443 kts 300°
2026-04-21 17:13 58.88136 12.22277 38337 ft 442 kts 300°
2026-04-21 17:14 58.91012 12.11744 38339 ft 441 kts 300°
2026-04-21 17:14 58.93874 12.01214 38331 ft 441 kts 300°
2026-04-21 17:15 58.96706 11.90746 38340 ft 440 kts 300°
2026-04-21 17:15 58.99546 11.80196 38343 ft 440 kts 300°
2026-04-21 17:16 59.02360 11.69696 38341 ft 440 kts 300°
2026-04-21 17:16 59.05184 11.59110 38341 ft 440 kts 299°
2026-04-21 17:17 59.07980 11.48580 38346 ft 440 kts 299°
2026-04-21 17:17 59.10789 11.37952 38344 ft 441 kts 299°
2026-04-21 17:18 59.13591 11.27298 38350 ft 442 kts 299°
2026-04-21 17:18 59.16385 11.16621 38434 ft 442 kts 298°
2026-04-21 17:19 59.19162 11.05962 38455 ft 443 kts 298°
2026-04-21 17:19 59.21936 10.95262 38468 ft 444 kts 298°
2026-04-21 17:20 59.24718 10.84480 38491 ft 444 kts 298°
2026-04-21 17:20 59.27498 10.73652 38481 ft 444 kts 298°
2026-04-21 17:21 59.30248 10.62891 38477 ft 445 kts 298°
2026-04-21 17:21 59.31633 10.57454 38369 ft 445 kts 298°
2026-04-21 17:21 59.32999 10.52075 38370 ft 445 kts 298°
2026-04-21 17:22 59.35750 10.41203 38374 ft 445 kts 298°
2026-04-21 17:22 59.38494 10.30304 38367 ft 444 kts 297°
2026-04-21 17:23 59.41209 10.19471 38378 ft 444 kts 297°
2026-04-21 17:23 59.43930 10.08557 38372 ft 444 kts 297°
2026-04-21 17:24 59.46640 9.97634 38372 ft 444 kts 297°
2026-04-21 17:24 59.49331 9.86734 38379 ft 444 kts 297°
2026-04-21 17:25 59.52025 9.75767 38369 ft 445 kts 297°
2026-04-21 17:25 59.54715 9.64760 38376 ft 445 kts 297°
2026-04-21 17:26 59.57381 9.53800 38381 ft 444 kts 297°
2026-04-21 17:26 59.60053 9.42756 38385 ft 445 kts 297°
2026-04-21 17:27 59.62696 9.31780 38387 ft 445 kts 296°
2026-04-21 17:27 59.65345 9.20717 38387 ft 444 kts 296°
2026-04-21 17:28 59.67985 9.09642 38387 ft 445 kts 296°
2026-04-21 17:28 59.69310 9.04063 38116 ft 449 kts 296°
2026-04-21 17:28 59.70619 8.98535 37853 ft 448 kts 296°
2026-04-21 17:29 59.71937 8.92956 37598 ft 443 kts 296°
2026-04-21 17:29 59.73237 8.87431 37323 ft 440 kts 296°
2026-04-21 17:29 59.74530 8.81928 37073 ft 439 kts 296°
2026-04-21 17:29 59.75815 8.76446 36549 ft 437 kts 295°
2026-04-21 17:30 59.77092 8.70983 36031 ft 436 kts 295°
2026-04-21 17:30 59.78365 8.65527 35455 ft 436 kts 295°
2026-04-21 17:30 59.79640 8.60046 34857 ft 436 kts 295°
2026-04-21 17:30 59.80894 8.54640 34211 ft 436 kts 294°
2026-04-21 17:31 59.82165 8.49150 33505 ft 436 kts 294°
2026-04-21 17:31 59.83432 8.43657 32882 ft 434 kts 294°
2026-04-21 17:31 59.84691 8.38194 32227 ft 433 kts 293°
2026-04-21 17:31 59.85941 8.32751 31651 ft 430 kts 293°
2026-04-21 17:32 59.86760 8.29176 31361 ft 427 kts 293°
2026-04-21 17:32 59.88383 8.22081 30698 ft 422 kts 292°
2026-04-21 17:32 59.89590 8.16786 30185 ft 417 kts 292°
2026-04-21 17:32 59.90778 8.11561 29697 ft 411 kts 292°
2026-04-21 17:33 59.91950 8.06397 29218 ft 406 kts 292°
2026-04-21 17:33 59.93102 8.01307 28748 ft 401 kts 292°
2026-04-21 17:33 59.94241 7.96261 28277 ft 396 kts 292°
2026-04-21 17:33 59.95361 7.91283 27828 ft 391 kts 291°
2026-04-21 17:34 59.96472 7.86339 27363 ft 388 kts 291°
2026-04-21 17:34 59.97569 7.81445 26875 ft 384 kts 291°
2026-04-21 17:34 59.98656 7.76583 26407 ft 381 kts 291°
2026-04-21 17:34 59.99731 7.71763 25951 ft 379 kts 291°
2026-04-21 17:35 60.00800 7.66963 25501 ft 376 kts 291°
2026-04-21 17:35 60.01858 7.62197 25036 ft 374 kts 291°
2026-04-21 17:35 60.02909 7.57453 24598 ft 371 kts 291°
2026-04-21 17:35 60.03952 7.52736 24154 ft 370 kts 291°
2026-04-21 17:36 60.04986 7.48048 23623 ft 368 kts 291°
2026-04-21 17:36 60.06014 7.43375 23150 ft 365 kts 291°
2026-04-21 17:36 60.07020 7.38795 22706 ft 362 kts 291°
2026-04-21 17:36 60.08029 7.34191 22260 ft 359 kts 291°
2026-04-21 17:37 60.09029 7.29619 21809 ft 357 kts 291°
2026-04-21 17:37 60.10024 7.25055 21360 ft 358 kts 292°
2026-04-21 17:37 60.10682 7.22030 21064 ft 358 kts 292°
2026-04-21 17:37 60.12022 7.15861 20462 ft 365 kts 292°
2026-04-21 17:38 60.12695 7.12753 20160 ft 368 kts 292°
2026-04-21 17:38 60.13717 7.08033 19694 ft 368 kts 292°
2026-04-21 17:38 60.14729 7.03350 19240 ft 365 kts 292°
2026-04-21 17:38 60.15735 6.98680 18783 ft 362 kts 292°
2026-04-21 17:39 60.16729 6.94057 18264 ft 359 kts 293°
2026-04-21 17:39 60.17713 6.89472 17777 ft 356 kts 293°
2026-04-21 17:39 60.18687 6.84922 17335 ft 352 kts 293°
2026-04-21 17:39 60.19651 6.80409 16892 ft 349 kts 293°
2026-04-21 17:40 60.20602 6.75948 16459 ft 346 kts 293°
2026-04-21 17:40 60.21545 6.71518 16022 ft 343 kts 293°
2026-04-21 17:40 60.22467 6.67175 15583 ft 340 kts 293°
2026-04-21 17:40 60.23393 6.62802 15157 ft 338 kts 293°
2026-04-21 17:41 60.24190 6.58375 14707 ft 336 kts 281°
2026-04-21 17:41 60.24254 6.53692 14242 ft 335 kts 267°
2026-04-21 17:41 60.24110 6.49013 13746 ft 333 kts 266°
2026-04-21 17:41 60.23778 6.44424 13270 ft 330 kts 257°
2026-04-21 17:42 60.23204 6.40047 12616 ft 325 kts 255°
2026-04-21 17:42 60.22587 6.35675 11819 ft 324 kts 255°
2026-04-21 17:42 60.21968 6.31326 11201 ft 319 kts 254°
2026-04-21 17:42 60.21378 6.27127 10928 ft 303 kts 255°
2026-04-21 17:43 60.20822 6.23119 10653 ft 294 kts 255°
2026-04-21 17:43 60.20285 6.19211 10517 ft 286 kts 255°
2026-04-21 17:43 60.19764 6.15405 10229 ft 284 kts 255°
2026-04-21 17:43 60.19242 6.11574 9856 ft 283 kts 255°
2026-04-21 17:44 60.18721 6.07748 9511 ft 283 kts 255°
2026-04-21 17:44 60.18208 6.03984 9181 ft 281 kts 256°
2026-04-21 17:44 60.17692 6.00209 8857 ft 280 kts 255°
2026-04-21 17:44 60.17172 5.96404 8521 ft 278 kts 256°
2026-04-21 17:45 60.16659 5.92662 8195 ft 277 kts 255°
2026-04-21 17:45 60.16153 5.88977 7875 ft 277 kts 256°
2026-04-21 17:45 60.15642 5.85264 7554 ft 275 kts 255°
2026-04-21 17:45 60.15133 5.81568 7227 ft 274 kts 255°
2026-04-21 17:46 60.14624 5.77883 6933 ft 273 kts 255°
2026-04-21 17:46 60.14116 5.74218 6605 ft 273 kts 256°
2026-04-21 17:46 60.13607 5.70552 6250 ft 273 kts 255°
2026-04-21 17:46 60.13108 5.66965 6095 ft 258 kts 255°
2026-04-21 17:47 60.12637 5.63598 5965 ft 243 kts 255°
2026-04-21 17:47 60.12194 5.60424 5753 ft 238 kts 255°
2026-04-21 17:47 60.11746 5.57213 5464 ft 239 kts 255°
2026-04-21 17:47 60.11297 5.54006 5204 ft 238 kts 255°
2026-04-21 17:48 60.10847 5.50801 4951 ft 237 kts 255°
2026-04-21 17:48 60.10398 5.47624 4725 ft 235 kts 255°
2026-04-21 17:48 60.09957 5.44500 4500 ft 236 kts 255°
2026-04-21 17:48 60.09613 5.41314 4307 ft 230 kts 271°
2026-04-21 17:49 60.09852 5.38261 4094 ft 215 kts 283°
2026-04-21 17:49 60.10146 5.35360 3867 ft 212 kts 282°
2026-04-21 17:49 60.10424 5.32471 3694 ft 210 kts 282°
2026-04-21 17:49 60.10771 5.29663 3569 ft 205 kts 298°
2026-04-21 17:50 60.11756 5.27834 3499 ft 197 kts 342°
2026-04-21 17:50 60.13089 5.27382 3273 ft 193 kts 352°
2026-04-21 17:50 60.14394 5.26888 3016 ft 189 kts 349°
2026-04-21 17:50 60.15682 5.26416 2753 ft 186 kts 350°
2026-04-21 17:51 60.16934 5.25987 2498 ft 183 kts 351°
2026-04-21 17:51 60.18160 5.25574 2252 ft 173 kts 351°
2026-04-21 17:51 60.19308 5.25189 2011 ft 162 kts 351°
2026-04-21 17:51 60.20383 5.24826 1829 ft 151 kts 351°
2026-04-21 17:52 60.21390 5.24488 1581 ft 141 kts 351°
2026-04-21 17:52 60.22317 5.24176 1390 ft 131 kts 350°
2026-04-21 17:52 60.23214 5.23866 1216 ft 132 kts 350°
2026-04-21 17:52 60.24136 5.23557 1052 ft 134 kts 349°
2026-04-21 17:53 60.25038 5.23272 848 ft 130 kts 349°
2026-04-21 17:53 60.25942 5.22975 695 ft 132 kts 349°
2026-04-21 17:53 60.26823 5.22670 489 ft 130 kts 348°
2026-04-21 17:53 60.27720 5.22357 300 ft 131 kts 348°
2026-04-21 17:54 60.28594 5.22068 164 ft 123 kts 349°
2026-04-21 17:54 60.29240 5.21853 157 ft 62 kts 350°
2026-04-21 17:54 60.29606 5.21727 147 ft 40 kts 350°
2026-04-21 17:54 60.29714 5.21846 147 ft 9 kts 81°
2026-04-21 17:55 60.29720 5.21938 147 ft 5 kts 87°
2026-04-21 17:55 60.29706 5.22005 147 ft 6 kts 143°
2026-04-21 17:55 60.29660 5.22032 147 ft 8 kts 169°
2026-04-21 17:55 60.29604 5.22051 148 ft 8 kts 171°
2026-04-21 17:56 60.29549 5.22068 151 ft 8 kts 170°
2026-04-21 17:56 60.29492 5.22086 154 ft 9 kts 170°
2026-04-21 17:56 60.29405 5.22115 157 ft 14 kts 171°
2026-04-21 17:56 60.29307 5.22148 160 ft 14 kts 171°
2026-04-21 17:57 60.29197 5.22185 162 ft 18 kts 170°
2026-04-21 17:57 60.29076 5.22226 161 ft 18 kts 171°
2026-04-21 17:57 60.28957 5.22268 161 ft 17 kts 169°
2026-04-21 17:57 60.28842 5.22306 161 ft 16 kts 171°
2026-04-21 17:58 60.28811 5.22407 164 ft 7 kts 59°
2026-04-21 17:58 60.28836 5.22492 169 ft 7 kts 59°
2026-04-21 17:58 60.28855 5.22555 172 ft 3 kts 59°
2026-04-21 17:58 60.28858 5.22568 172 ft 0 kts 59°
2026-04-21 17:59 60.28859 5.22568 172 ft 0 kts 59°